[[{"header":{"parameterUnit":"m.s-1","parameterCategory":1,"la1":30.2991,"la2":30.254,"lo1":-89.0895,"lo2":-89.0444,"dy":0.0017,"dx":0.0017,"nx":28,"ny":28,"refTime":"2024-06-08T21:00:00:Z","depth":0,"parameterNumber":2,"parameterNumberName":"U-component_of_WINDS"},"data":[0,0,0,0,0,0,0,0,0,0,0,0,0,0,0,0,0,0,0,0,0,0,0,0,0,0,0,0,0,0,0,0,0,0,0,0,0,0,0,0,0,0,0,0,0,0,0,0,0,0,0,0,0,0,0,0,0,0,3.996,3.9961,0,4.004,4.0041,4.0042,4.0001,3.9998,3.9996,3.9994,4.0074,4.0078,4.0082,0,0,0,0,0,0,0,0,0,0,0,0,0,3.9766,3.977,3.996,3.9961,3.9962,4.004,4.0041,4.0042,4.0001,3.9998,3.9996,3.9993,4.0073,4.0078,4.0083,0,0,0,0,0,0,0,0,0,0,0,0,0,3.9849,3.9771,3.996,3.9951,3.9951,4.004,4.0041,4.0043,4.0002,3.9998,3.9995,3.9992,4.0071,4.0077,4.0083,4.0185,0,0,4.0102,4.0105,0,0,0,0,0,0,0,0,3.9844,3.9856,3.9951,3.9952,3.9952,4.0007,4.0002,4.009,4.0002,3.9982,3.9994,3.9991,4.0054,4.0062,4.0084,4.0189,4.0192,4.0103,4.0106,4.0109,4.0111,0,0,0,0,0,0,0,3.9838,3.9852,3.9992,3.9952,3.9953,3.9941,3.9949,4.0018,4.0035,3.9984,3.9981,3.9991,4.0054,4.0078,4.0085,4.0193,4.0102,4.0108,4.0112,4.0114,4.038,4.0384,0,0,0,0,0,0,3.9834,3.9848,3.9989,3.9994,3.9889,3.9947,3.9956,3.9993,4.0034,4.0038,3.9994,3.9989,4.0069,4.0078,4.0088,4.0206,4.0109,4.0115,4.0118,4.0377,4.0381,4.0385,0,0,0,0,0,0,3.983,3.9847,3.9986,3.992,3.9937,3.9954,3.9995,3.9996,4.002,4.0042,4.0044,4.0015,4.0067,4.0079,4.016,4.0208,4.0117,4.0123,4.0373,4.0378,4.0383,4.0445,0,0,0,0,0,0,3.9824,3.9845,3.9886,3.9921,3.9941,4.0058,3.9998,4.0,4.0031,4.0025,4.0063,4.0066,4.0065,4.0151,4.0166,4.0215,4.0128,4.0369,4.0375,4.0381,4.0438,4.0451,4.0462,0,0,0,0,0,3.9817,3.99,3.9888,3.9905,3.9991,4.0061,4.0072,4.007,4.0035,4.0074,4.0087,4.0065,4.0201,4.016,4.0176,4.0228,4.0366,4.0374,4.0381,4.0433,4.0449,4.0462,0,0,0,0,0,0,3.987,3.9905,3.9891,3.9989,4.0022,4.0054,4.0104,4.0088,4.0131,4.0124,4.0119,4.0128,4.0211,4.0228,4.0182,4.0326,4.0278,4.0289,4.0311,4.0326,4.0338,4.0331,4.0133,0,0,0,0,0,3.9893,3.9948,3.9975,4.0058,4.0076,4.0087,4.0117,4.0113,4.0147,4.0161,4.0181,4.0214,4.0263,4.0296,4.0344,4.0441,4.0446,4.0484,4.0496,4.0506,4.0515,4.0563,4.0579,4.041,4.041,4.041,0,0,3.994,3.9966,4.0001,4.0069,4.0095,4.0149,4.0099,4.0161,4.02,4.017,4.0246,4.0262,4.0299,4.0387,4.0427,4.0403,4.0563,4.0516,4.0523,4.0527,4.0572,4.0588,4.0602,4.0415,4.0414,4.0413,0,0,4.0054,4.0081,4.0151,4.0177,4.0216,4.0223,4.024,4.0274,4.0283,4.036,4.0337,4.0384,4.0471,4.0496,4.0521,4.0641,4.062,4.0657,4.0718,4.0765,4.0778,4.079,4.0829,4.0843,4.0667,4.0667,4.0667,0,4.0108,4.0191,4.0189,4.0251,4.0279,4.0255,4.0323,4.0349,4.0401,4.0421,4.0394,4.05,4.0524,4.0615,4.0644,4.0666,4.0682,4.0651,4.0777,4.0789,4.0799,4.0836,4.0851,4.0671,4.067,4.067,4.0669,0,4.0253,4.0311,4.0362,4.0412,4.0447,4.0513,4.0518,4.0554,4.0546,4.0554,4.0631,4.0658,4.0708,4.073,4.0724,4.082,4.0803,4.0777,4.0728,4.0819,4.0853,4.0868,4.0676,4.0675,4.0674,4.0673,0,0,4.0402,4.0449,4.0467,4.0488,4.0528,4.0571,4.0634,4.0684,4.0712,4.0749,4.0799,4.0872,4.0847,4.0874,4.087,4.0912,4.1,4.088,4.0881,4.0898,4.1103,4.1119,4.1136,4.0988,4.0991,4.0993,4.1098,0,4.0515,4.0625,4.0624,4.0725,4.0775,4.0752,4.0806,4.0835,4.0845,4.0888,4.0898,4.0948,4.0913,4.0929,4.097,4.0981,4.1041,4.0974,4.1031,4.1033,4.1019,4.1155,4.1174,4.1272,4.1112,4.1115,4.1116,0,4.0662,4.0702,4.0808,4.0837,4.0858,4.0907,4.095,4.0993,4.1024,4.1028,4.1058,4.1046,4.1107,4.1059,4.114,4.1094,4.1118,4.1127,4.113,4.1133,4.1078,4.1157,4.1304,4.1317,4.1138,4.1136,4.1135,0,4.0754,4.0835,4.0908,4.0927,4.0964,4.0998,4.1015,4.1043,4.1072,4.1109,4.1127,4.1172,4.1195,4.1228,4.1228,4.1193,4.1309,4.1261,4.131,4.131,4.1333,4.1331,4.1482,4.1355,4.1355,4.1355,4.1354,0,4.0878,4.0943,4.0949,4.0993,4.1064,4.1061,4.1131,4.1144,4.1169,4.1214,4.1197,4.1239,4.1238,4.128,4.128,4.1345,4.1357,4.1359,4.1358,4.1359,4.1358,4.1371,4.1363,4.1359,4.1358,4.1357,4.1356,0,4.0992,4.1,4.1076,4.1105,4.1113,4.1163,4.1186,4.1227,4.1235,4.1291,4.1304,4.1316,4.1364,4.1367,4.1424,4.1424,4.1501,4.1494,4.149,4.1488,4.1535,4.1529,4.1696,4.1716,4.158,4.1582,4.1583,0,4.1069,4.1118,4.1151,4.118,4.1198,4.1246,4.1274,4.1273,4.1302,4.134,4.1376,4.1422,4.1459,4.1537,4.1549,4.1591,4.1582,4.1638,4.1588,4.1586,4.1578,4.1573,4.1576,4.1647,4.1648,4.1649,4.165,0,4.1204,4.1204,4.1246,4.1289,4.1323,4.1357,4.1388,4.1412,4.1414,4.1448,4.1497,4.1526,4.1582,4.1627,4.1668,4.1683,4.1666,4.1666,4.1679,4.1678,4.1672,4.1672,4.1512,4.1662,4.1661,4.166,4.1659,4.1659,4.1299,4.1339,4.1368,4.1414,4.1437,4.1466,4.1505,4.1516,4.1558,4.1603,4.16,4.1653,4.168,4.1732,4.1751,4.179,4.1771,4.1791,4.1795,4.1799,4.1802,4.1669,4.1798,4.1798,4.1798,4.1798,4.1797,0,4.1428,4.1445,4.1488,4.1531,4.1567,4.155,4.1582,4.1612,4.166,4.1687,4.1723,4.1777,4.182,4.1835,4.1876,4.1905,4.1898,4.1915,4.1911,4.1914,4.1819,4.1802,4.192,4.192,4.192,4.192,4.192,4.192,4.15,4.1566,4.157,4.1646,4.1662,4.1714,4.1734,4.1759,4.178,4.1841,4.1877,4.1887,4.1908,4.195,4.1987,4.1991,4.2005,4.2025,4.2024,4.1934,4.1921,4.191,4.1893,4.2029,4.2029,4.2115,4.2116,4.2117]},{"header":{"parameterUnit":"m.s-1","parameterCategory":1,"la1":30.2991,"la2":30.254,"lo1":-89.0895,"lo2":-89.0444,"dy":0.0017,"dx":0.0017,"nx":28,"ny":28,"refTime":"2024-06-08T21:00:00:Z","depth":0,"parameterNumber":3,"parameterNumberName":"V-component_of_WINDS"},"data":[0,0,0,0,0,0,0,0,0,0,0,0,0,0,0,0,0,0,0,0,0,0,0,0,0,0,0,0,0,0,0,0,0,0,0,0,0,0,0,0,0,0,0,0,0,0,0,0,0,0,0,0,0,0,0,0,0,0,3.5449,3.545,0,3.5569,3.557,3.5572,3.5551,3.5548,3.5546,3.5544,3.5664,3.5669,3.5675,0,0,0,0,0,0,0,0,0,0,0,0,0,3.5199,3.5203,3.5449,3.545,3.5452,3.5569,3.557,3.5572,3.5551,3.5548,3.5546,3.5543,3.5663,3.5669,3.5675,0,0,0,0,0,0,0,0,0,0,0,0,0,3.5312,3.5205,3.5449,3.5456,3.5457,3.5568,3.557,3.5572,3.5551,3.5548,3.5545,3.5542,3.5661,3.5668,3.5676,3.5787,0,0,3.5699,3.5703,0,0,0,0,0,0,0,0,3.5305,3.5321,3.5453,3.5455,3.5458,3.5542,3.5526,3.5644,3.5552,3.5516,3.5544,3.5541,3.5626,3.5636,3.5666,3.5792,3.5797,3.57,3.5705,3.5708,3.571,0,0,0,0,0,0,0,3.5298,3.5316,3.5496,3.5455,3.5458,3.5452,3.5464,3.5548,3.5587,3.5519,3.5517,3.5532,3.5626,3.5658,3.5668,3.5799,3.57,3.5707,3.5712,3.5715,3.6021,3.6025,0,0,0,0,0,0,3.5288,3.5309,3.5492,3.55,3.5372,3.5459,3.5473,3.5518,3.5586,3.5593,3.5535,3.5531,3.5647,3.5659,3.5672,3.5806,3.5708,3.5715,3.572,3.6018,3.6022,3.6026,0,0,0,0,0,0,3.5283,3.5305,3.5488,3.5404,3.5427,3.5466,3.5517,3.5522,3.5554,3.5598,3.5604,3.556,3.5645,3.5662,3.5758,3.581,3.5719,3.5726,3.6014,3.6019,3.6024,3.6074,0,0,0,0,0,0,3.5276,3.5303,3.5346,3.5406,3.5432,3.5573,3.552,3.5526,3.5567,3.5563,3.5624,3.5631,3.5643,3.5747,3.5766,3.5819,3.5732,3.6009,3.6016,3.6022,3.6068,3.608,3.6091,0,0,0,0,0,3.5267,3.5355,3.5349,3.5371,3.5487,3.5576,3.5591,3.5604,3.5572,3.5615,3.5643,3.5629,3.5801,3.5757,3.5778,3.5834,3.6006,3.6014,3.6022,3.6063,3.6078,3.6091,0,0,0,0,0,0,3.53,3.5363,3.5356,3.5467,3.5516,3.5572,3.5627,3.562,3.5679,3.5673,3.5686,3.57,3.5798,3.5826,3.5775,3.5944,3.5899,3.5911,3.5923,3.5937,3.5949,3.594,3.5738,0,0,0,0,0,3.532,3.5388,3.5439,3.5532,3.5557,3.5588,3.5627,3.5633,3.5685,3.5705,3.5741,3.579,3.5855,3.5898,3.596,3.6072,3.6084,3.6121,3.6132,3.6141,3.6152,3.6211,3.6228,3.6052,3.6052,3.6051,0,0,3.5363,3.5406,3.5447,3.5539,3.5578,3.5647,3.5605,3.568,3.5731,3.5716,3.581,3.5837,3.5893,3.5998,3.6045,3.6024,3.6203,3.6151,3.6158,3.6164,3.6221,3.6238,3.6253,3.6057,3.6056,3.6055,0,0,3.5475,3.5515,3.5596,3.5636,3.5695,3.5715,3.5735,3.5792,3.581,3.5904,3.5894,3.5954,3.6067,3.6107,3.6142,3.6268,3.6257,3.6288,3.6348,3.6406,3.642,3.6433,3.6477,3.6493,3.6299,3.6299,3.6299,0,3.552,3.5624,3.5638,3.5714,3.5754,3.5744,3.5826,3.5863,3.594,3.5968,3.5943,3.6083,3.612,3.6233,3.6264,3.6293,3.6314,3.6281,3.6417,3.643,3.6442,3.6484,3.6501,3.6302,3.6302,3.6301,3.6301,0,3.5676,3.5748,3.5806,3.5882,3.5928,3.6006,3.6031,3.6076,3.6078,3.61,3.6196,3.624,3.6311,3.6338,3.6341,3.6451,3.6436,3.6414,3.6369,3.6461,3.6501,3.6518,3.6307,3.6306,3.6305,3.6304,0,0,3.5813,3.5894,3.5915,3.5949,3.6014,3.6069,3.6146,3.6217,3.6255,3.6308,3.6372,3.6467,3.6447,3.6487,3.6494,3.6545,3.6641,3.6516,3.6518,3.6537,3.6764,3.678,3.6799,3.6634,3.6637,3.664,3.6759,0,3.593,3.6068,3.6082,3.6204,3.627,3.6262,3.6329,3.6375,3.6398,3.6457,3.6481,3.6548,3.6517,3.6541,3.6591,3.6619,3.6687,3.661,3.6693,3.6695,3.6678,3.682,3.6837,3.6948,3.6775,3.6778,3.678,0,3.6086,3.6144,3.6273,3.6328,3.6357,3.6417,3.6482,3.6539,3.659,3.6603,3.6648,3.6647,3.6725,3.6677,3.6784,3.6732,3.6767,3.6785,3.679,3.6797,3.6743,3.683,3.6983,3.7,3.6805,3.6803,3.6801,0,3.6171,3.6282,3.6373,3.6402,3.6469,3.6512,3.6541,3.659,3.6631,3.6687,3.6714,3.6778,3.6813,3.6863,3.6879,3.6843,3.6985,3.6939,3.6997,3.6997,3.7027,3.7025,3.7187,3.7051,3.705,3.705,3.705,0,3.6301,3.638,3.6413,3.6469,3.6557,3.6572,3.6658,3.6685,3.6729,3.6789,3.6786,3.6842,3.6861,3.692,3.6934,3.702,3.7036,3.7047,3.705,3.7047,3.7046,3.707,3.7062,3.7054,3.7053,3.7053,3.7052,0,3.6411,3.6436,3.6535,3.659,3.6606,3.6668,3.6715,3.6768,3.679,3.6866,3.6885,3.6919,3.6988,3.701,3.7094,3.7103,3.7203,3.7199,3.7186,3.7186,3.7243,3.7237,3.7425,3.745,3.7298,3.7299,3.7301,0,3.6491,3.6552,3.6614,3.6655,3.6686,3.6752,3.6793,3.681,3.6854,3.6917,3.6963,3.7032,3.7088,3.7199,3.7231,3.7294,3.7291,3.7353,3.7301,3.7296,3.7291,3.7287,3.7293,3.7362,3.7364,3.7365,3.7366,0,3.6631,3.6641,3.6702,3.6767,3.6818,3.687,3.692,3.6953,3.6977,3.7026,3.7097,3.7141,3.7227,3.7295,3.736,3.7389,3.7381,3.7383,3.7399,3.7397,3.7387,3.7392,3.7212,3.7378,3.7377,3.7376,3.7375,3.7375,3.6729,3.6782,3.6834,3.6901,3.6941,3.6988,3.7041,3.7069,3.713,3.7201,3.7207,3.7284,3.7334,3.742,3.7452,3.7512,3.7494,3.7519,3.7525,3.753,3.7534,3.7378,3.7524,3.7524,3.7523,3.7523,3.7523,0,3.6867,3.69,3.6963,3.7033,3.7086,3.7076,3.7131,3.7176,3.7244,3.7291,3.7347,3.7428,3.7494,3.7531,3.7596,3.7637,3.7635,3.7653,3.765,3.7657,3.7547,3.7526,3.7654,3.7654,3.7653,3.7653,3.7653,3.7653,3.6946,3.7035,3.7051,3.7159,3.7191,3.7267,3.7299,3.7342,3.738,3.7472,3.7527,3.7551,3.7593,3.7662,3.7721,3.773,3.7754,3.7774,3.7781,3.7678,3.7664,3.7652,3.7631,3.778,3.778,3.7885,3.7886,3.7887]}]]